Startpagina
METAR-TAF:

METAR-TAF

Vliegvelden :

Productieplatform

Hoorn-a, Nederland

breedte: 52-55-05N, lengte: 4-09-01E, hoogte: 41 m

Actueel weer

Dit bericht is 22 minuten geleden gemaakt, om 06:55 UTC
Wind 7 kt uit het zuidwesten
Temperatuur 14°C
Vochtigheid 77%
Druk 1029 hPa
Zicht 10 km of meer
Weinig wolken op 2000 ft
Verspreide wolken op 3400 ft

METAR: EHQE 200655Z AUTO 22007KT 9999 FEW020 SCT034 14/10 Q1029 W///H///

Tijdstip: 09:17 (07:17 UTC)


TAF: ontbreekt

Waarnemingen en weersverwachtingen van meer dan 4000 vliegvelden (METAR en TAF).

De beschikbare stations zijn de gele en rode punten op de kaart.

Ga met uw muis naar het station om de naam te zien.

Klik dan om waarnemingen en weersverwachtingen te zien.

kaart wijzigen: klik op de groene knoppen met een zwart kruis om in te zoomen, op de groene knop met een streepje om uit te zoomen of op de groene pijlen voor aangrenzende kaarten.


METAR-TAF: